User: anonymous   Login
Location: Unspecified
(0.0000°N, 0.0000°E)
Time: 05:47:40
(UTC+00:00)
Language:

OBJECT J - Orbit

View from above orbital plane
View from above orbital plane
View from above satellite
View from above satellite

Ground track
Ground track

The orbit is defined by the following mean orbital elements,

1 61902U          26145.64939750 +.00000000 +00000-0 +36038-3 0 00005
2 61902  97.4146 216.6900 0011905 242.2382 117.7642 15.11773972    05
Epoch (UTC): 25 May 2026 15:35:07
Eccentricity: 0.0011905
inclination: 97.4146°
perigee height: 523 km
apogee height: 539 km
right ascension of ascending node: 216.6900°
argument of perigee: 242.2382°
revolutions per day: 15.11773972
mean anomaly at epoch: 117.7642°

The dashed part of the orbit path shows where the satellite is in the earth's shadow,  

DLR